Regional Weather Roundup
Issued by NWS

Home | Current Version | Previous Version | Graphics & Text | Print | Product List | Glossary On
Versions: 1 2 3 4 5 6 7 8 9 10 11 12 13 14 15 16 17 18 19 20 21 22 23 24 25 26 27 28 29 30 31 32 33 34 35 36 37 38 39 40 41 42 43 44 45 46 47 48 49 50
000
ASUS43 KOAX 231710
RWRNE

WEATHER ROUNDUP FOR NEBRASKA
NATIONAL WEATHER SERVICE OMAHA NE
1200 PM CDT TUE AUG 23 2016

NOTES: SATELLITE DATA IS BEING USED TO AUGMENT CLOUD COVER ABOVE
       12000 FEET.
       "FAIR" INDICATES FEW OR NO CLOUDS BELOW 12,000 FEET WITH NO
       SIGNIFICANT WEATHER AND/OR OBSTRUCTIONS TO VISIBILITY.

  * THESE STATIONS DO NOT REPORT WEATHER SUCH AS RAIN...SNOW OR FOG.

NEZ001>004-019>022-054>056-231800-
NEBRASKA PANHANDLE

CITY           SKY/WX    TMP DP  RH WIND       PRES   REMARKS
SCOTTSBLUFF    SUNNY     79  35  20 NW16G28   29.96S
ALLIANCE       SUNNY     79  38  22 NW21G28   29.92R
CHADRON        SUNNY     80  31  16 NW16      29.91R
KIMBALL        SUNNY     76  36  22 NW17G26   30.02R
SIDNEY         SUNNY     83  36  18 N20       29.98R
$$

NEZ057>060-069>072-079>082-231800-
SOUTHWEST NEBRASKA

CITY           SKY/WX    TMP DP  RH WIND       PRES   REMARKS
NORTH PLATTE   SUNNY     81  65  58 SW6       29.84S
IMPERIAL       SUNNY     82  60  47 NW6       29.88S
LEXINGTON      MOSUNNY   80  66  61 S12       29.84S
MCCOOK         SUNNY     80  64  58 CALM      29.84R
OGALLALA       SUNNY     87  34  15 NW13      29.87S
$$

NEZ005>010-023>029-035>040-094-231800-
NORTH CENTRAL NEBRASKA

CITY           SKY/WX    TMP DP  RH WIND       PRES   REMARKS
VALENTINE      SUNNY     84  57  39 W13       29.78S
AINSWORTH      SUNNY     81  66  61 S14G20    29.80F
BROKEN BOW     PTSUNNY   77  68  73 S13       29.83S
O`NEILL        CLOUDY    74  65  73 S17G24    29.83S
ORD            CLOUDY    76  67  73 S14       29.82F
THEDFORD       SUNNY     83  64  52 SW8G16    29.84R
$$

NEZ041-046>049-061>064-073>077-083>087-231800-
SOUTH CENTRAL NEBRASKA

CITY           SKY/WX    TMP DP  RH WIND       PRES   REMARKS
GRAND ISLAND   PTSUNNY   81  68  64 S21G28    29.85F
AURORA         CLOUDY    80  71  72 S20G25    29.85F
HASTINGS       MOSUNNY   83  68  60 S13G22    29.86S
HEBRON         PTSUNNY   81  71  72 S20G25    29.88F
HOLDREGE       SUNNY     81  65  57 S13G22    29.84S
KEARNEY *      PTSUNNY   81  66  61 S17       29.83S
YORK           CLOUDY    79  70  73 S18G24    29.87S
$$

NEZ011>018-030>034-042>045-231800-
NORTHEAST NEBRASKA

CITY           SKY/WX    TMP DP  RH WIND       PRES   REMARKS
NORFOLK        CLOUDY    65  63  93 E9        29.86F
ALBION         CLOUDY    72  69  92 SE6       29.86F
BLAIR          CLOUDY    73  70  88 SE13G18   29.92F
FREMONT        CLOUDY    74  69  84 SE15      29.90S
TEKAMAH        CLOUDY    73  68  84 SE14      29.91F
WAYNE          TSTM      67  67  97 S3G10     29.90S
$$

NEZ050>053-065>068-078-088>093-231800-
SOUTHEAST NEBRASKA

CITY           SKY/WX    TMP DP  RH WIND       PRES   REMARKS
LINCOLN        CLOUDY    81  71  71 S18G26    29.89F
OMAHA EPPLEY   CLOUDY    74  68  81 SE14      29.93F
BEATRICE       MOSUNNY   79  71  76 S20G28    29.90F
FALLS CITY     CLOUDY    79  71  76 S15       29.96F
NEBRASKA CITY  CLOUDY    76  73  91 S17       29.94F
PLATTSMOUTH    CLOUDY    74  71  89 SE15      29.94F
$$

NEZ044-045-051>053-067-231800-
OMAHA AREA

CITY           SKY/WX    TMP DP  RH WIND       PRES   REMARKS
OMAHA EPPLEY   CLOUDY    74  68  81 SE14      29.93F
BLAIR          CLOUDY    73  70  88 SE13G18   29.92F
FREMONT        CLOUDY    74  69  84 SE15      29.90S
MILLARD        CLOUDY    75  71  87 SE15      29.92F
OFFUTT AFB     CLOUDY    74  71  88 SE17G23   29.93F
PLATTSMOUTH    CLOUDY    74  71  89 SE15      29.94F
WAHOO          CLOUDY    77  71  83 SE15G23   29.89F
$$




USA.gov is the U.S. government's official web portal to all federal, state and local government web resources and services.